Theta_e
360 361 361 360 360 359 358 358 361 361 363 361 363 364 363 362 362 362 362 362 361 360 361 359 361 360 356 357 358 359 357 357 357 355 355 357 359 358 358 357 357 357 357 358 357 357 357 357 357 357 357 356 356 356 356 356 356 356 355 355 355 355 355 355 354 355 355 356 355 355 355 355 355 356 355 355 354 354 354 351 350 353 352 350 347
359 361 359 359 358 359 360 360 360 361 361 363 363 362 360 360 361 363 361 362 362 362 361 358 357 358 358 357 357 357 361 357 358 355 357 357 359 359 358 357 357 358 357 358 357 357 357 356 357 357 356 356 355 356 356 356 356 356 355 355 355 355 354 355 355 355 355 355 355 356 356 355 355 356 355 355 355 354 354 352 350 352 352 350 347
360 360 360 359 359 360 360 361 360 361 362 362 364 362 361 361 363 363 364 364 363 363 362 359 359 358 358 356 356 359 359 361 357 356 353 356 358 359 359 358 357 357 357 358 357 357 357 357 356 356 356 356 356 356 356 355 356 355 355 355 355 355 355 355 355 355 356 356 356 356 356 355 355 355 354 354 354 354 352 352 349 351 352 350 347
363 363 361 361 359 358 359 360 358 361 363 361 362 363 364 365 367 368 369 368 365 365 364 358 358 355 359 356 357 357 358 359 355 354 354 355 357 358 359 358 358 359 358 358 358 357 358 358 357 357 357 357 356 356 356 356 355 355 355 355 355 356 355 355 355 356 357 357 356 356 356 355 355 355 354 354 353 354 352 352 350 350 352 349 347
364 364 364 362 361 362 358 361 362 362 362 362 364 367 366 365 365 366 366 364 362 362 363 358 356 358 356 355 356 356 358 359 359 357 354 354 356 356 358 359 359 357 359 359 359 358 358 358 357 357 357 357 357 357 357 356 356 356 356 356 357 357 356 356 357 357 357 357 356 356 356 355 355 355 354 353 352 353 352 352 350 350 350 349 348
365 365 364 362 363 362 360 359 362 363 364 367 364 365 363 363 363 361 360 361 358 360 358 357 356 356 356 355 356 357 358 355 356 356 357 355 355 357 356 357 358 360 360 359 360 361 359 359 359 359 358 358 358 358 358 358 357 357 357 357 357 357 357 357 358 358 357 356 356 356 355 355 354 354 354 353 352 352 352 351 350 350 349 349 348
365 365 364 362 359 359 360 360 364 365 364 367 366 365 365 363 363 360 360 358 358 361 359 357 356 356 358 358 355 356 357 354 357 356 357 359 360 355 357 356 357 361 361 360 359 361 360 361 361 360 359 360 359 359 359 359 359 359 359 358 358 358 358 358 358 358 358 357 356 356 356 355 355 354 354 353 352 351 351 351 350 349 349 349 348
366 367 364 363 360 359 361 365 366 365 366 367 366 364 365 364 364 361 357 355 358 355 359 359 357 354 357 358 357 357 357 356 356 355 356 360 360 360 360 359 360 360 360 360 361 363 360 361 361 361 361 361 361 360 360 360 360 359 359 359 359 358 358 358 358 358 358 357 357 356 356 355 355 355 354 353 352 351 351 350 349 349 349 349 349
368 368 365 363 361 361 362 365 366 364 365 364 362 364 364 360 365 364 363 359 355 351 355 359 357 355 354 353 353 357 356 358 356 357 357 360 360 357 359 360 361 359 361 362 362 362 362 360 361 361 361 361 361 361 360 360 360 360 359 359 359 359 358 358 358 358 358 357 357 356 356 356 355 355 354 353 352 351 351 350 350 349 349 349 349
369 368 367 364 363 362 364 367 367 366 365 364 363 363 365 363 362 365 365 362 356 355 351 353 354 353 352 350 356 355 356 358 359 359 359 359 361 361 360 359 359 358 358 359 358 362 363 362 360 360 361 361 361 361 361 360 360 360 359 359 359 358 358 359 358 358 357 357 357 356 356 356 356 355 354 353 353 352 352 351 351 350 350 350 349
369 368 367 362 363 364 365 367 367 366 366 363 362 363 363 363 361 362 367 367 363 361 360 357 355 352 348 351 353 358 359 357 359 358 358 356 356 359 358 361 361 361 363 363 360 362 363 364 364 364 363 360 360 360 360 360 361 361 360 359 359 358 358 358 358 358 358 357 358 357 357 356 356 356 356 355 354 356 354 353 352 352 351 351 350
368 368 367 364 362 364 366 367 366 366 364 360 359 360 361 361 362 361 362 364 364 363 362 358 354 354 354 354 355 355 357 356 356 356 359 359 359 361 356 358 362 361 360 362 361 358 363 366 366 364 365 364 358 359 360 360 361 361 361 361 361 360 360 359 360 359 359 359 359 359 359 358 358 357 357 357 357 357 356 355 353 352 352 351 351
368 368 367 366 366 366 367 367 367 366 365 363 361 362 364 364 364 366 360 359 358 359 356 355 354 350 354 350 351 354 352 356 354 353 354 357 358 359 360 360 361 362 364 363 363 361 362 367 366 366 365 366 366 360 358 359 360 360 361 362 362 362 362 362 362 362 361 361 361 362 361 360 359 359 358 358 358 357 357 356 355 354 353 353 352
368 368 369 366 365 364 366 367 367 366 366 365 364 364 367 365 363 361 363 359 357 356 352 352 349 342 341 342 345 348 352 351 351 350 352 353 355 359 360 357 355 358 362 365 365 364 364 366 368 365 368 368 366 366 368 366 365 360 359 360 360 361 362 362 363 363 363 362 362 363 362 361 361 360 360 359 358 358 357 357 357 356 355 354 353
368 368 367 367 365 365 365 367 366 366 365 365 364 364 365 365 362 359 358 361 359 361 359 355 343 348 348 344 340 339 349 349 348 349 348 349 351 351 353 352 353 359 364 364 363 365 362 363 366 368 369 369 367 367 368 365 364 361 360 359 359 361 363 364 364 364 365 365 364 363 362 362 362 362 361 360 360 359 358 358 357 356 356 355 354
366 366 367 366 367 365 365 365 368 368 366 364 363 362 364 365 361 362 360 354 353 355 359 358 352 347 338 339 339 338 331 341 344 347 347 347 347 347 350 352 353 358 363 360 357 364 366 367 367 369 370 370 369 368 367 367 365 362 362 362 362 362 362 363 365 365 365 367 367 365 364 363 362 362 362 362 361 361 360 359 358 357 356 356 356
367 367 366 367 368 367 365 365 366 367 366 364 362 360 362 364 362 361 361 357 352 353 358 355 352 356 346 343 339 337 335 339 340 345 343 342 344 345 348 350 350 357 359 358 361 365 361 362 368 369 370 371 371 370 369 369 369 368 368 364 362 360 360 361 362 364 365 365 365 365 365 364 363 363 363 363 362 362 361 360 359 358 358 357 357
367 367 366 366 367 367 367 365 365 366 366 363 364 362 361 361 362 361 361 363 361 354 352 358 358 359 356 350 349 340 340 344 342 336 354 343 345 345 348 347 349 353 361 359 358 359 363 361 367 368 368 368 368 369 367 367 370 369 371 372 363 360 359 359 361 362 364 364 364 365 365 365 364 364 363 363 362 361 361 359 359 358 358 358 358
365 367 367 367 367 368 368 366 365 366 367 366 364 360 359 362 363 361 361 366 363 356 354 353 358 359 356 352 353 353 349 344 339 343 337 347 347 342 343 348 348 348 349 351 351 354 358 360 357 357 361 367 366 366 369 368 366 365 364 363 362 362 361 359 360 361 362 364 364 364 365 365 364 364 363 362 363 362 360 360 358 358 358 358 358
366 368 368 367 368 367 367 366 365 365 365 365 364 363 365 366 366 365 364 366 364 358 355 354 352 353 357 354 355 356 355 350 347 342 342 339 340 343 345 346 347 347 348 347 347 349 352 360 358 359 360 363 365 365 366 366 368 369 367 359 360 359 358 356 356 358 360 362 363 364 365 366 366 365 363 364 364 363 362 360 359 359 360 360 360
367 366 368 367 368 367 368 367 365 366 367 365 365 364 365 367 367 365 363 364 364 363 361 359 355 351 353 355 353 350 349 349 348 349 344 339 336 338 341 346 347 347 350 352 351 351 352 353 357 354 359 363 365 364 362 365 365 369 366 358 359 360 359 356 356 358 360 361 363 363 364 365 365 366 366 366 365 364 364 362 362 362 362 362 361
365 366 367 368 367 368 366 365 366 364 364 364 366 366 367 368 368 365 365 363 365 365 362 362 359 357 355 357 354 352 350 348 344 345 343 346 338 337 340 340 340 345 352 348 353 353 354 354 356 354 356 361 363 363 365 365 367 362 359 356 357 356 355 355 354 357 358 359 360 362 362 363 363 364 364 365 365 365 365 364 364 363 363 362 362
365 366 366 366 368 368 365 365 366 367 367 366 366 365 365 367 367 368 367 364 364 365 363 364 363 361 358 360 356 350 350 345 346 347 344 342 342 339 339 341 340 341 349 351 358 353 358 358 354 352 361 361 362 363 364 364 363 358 357 356 355 356 356 356 356 357 358 355 358 359 359 361 361 362 362 362 362 362 361 361 361 361 361 361 360
366 363 364 364 368 367 368 367 368 367 367 368 368 367 367 366 367 368 368 368 368 365 362 361 360 362 360 357 356 354 354 351 348 353 351 348 346 343 342 347 347 344 347 355 357 351 353 354 354 356 357 360 363 363 363 364 364 359 359 357 355 355 356 357 356 356 354 353 352 354 356 358 358 359 358 358 358 358 359 359 359 360 360 360 360
363 362 364 367 368 367 367 367 368 369 370 370 370 371 370 367 368 367 367 368 367 366 363 361 361 359 356 358 357 356 355 358 354 351 353 355 354 345 344 346 343 342 349 350 349 351 352 354 358 359 362 365 365 367 364 363 362 360 358 360 355 355 354 354 355 353 352 351 351 352 353 354 355 354 353 353 354 355 356 357 358 358 358 358 357
363 364 366 367 367 367 369 369 372 372 372 372 372 372 372 369 369 368 365 369 369 368 367 363 364 363 363 360 357 357 357 358 357 354 350 348 347 346 350 350 345 341 350 353 356 347 350 356 357 365 363 366 367 369 369 364 364 358 356 359 361 354 353 352 353 352 351 350 350 350 351 354 354 354 353 352 355 356 356 355 355 355 356 356 355
365 368 370 369 368 369 369 368 370 371 372 371 370 371 372 371 371 370 369 368 369 367 366 363 360 361 364 363 361 360 360 361 357 354 355 353 352 353 353 346 342 342 343 351 353 350 346 356 355 359 365 370 370 372 371 368 363 359 359 372 370 357 353 350 351 350 348 348 348 349 350 351 352 352 351 353 354 354 355 354 354 353 354 354 353
368 369 368 368 368 368 369 367 370 369 371 371 371 368 371 368 370 370 369 367 368 368 367 365 362 363 363 365 364 360 362 361 361 359 359 360 360 360 358 352 344 339 345 344 346 348 351 346 354 360 362 367 370 370 367 368 367 362 366 372 373 370 357 350 349 349 347 346 347 348 349 349 350 350 351 351 352 354 354 354 353 352 352 351 349
366 367 367 368 369 368 367 365 368 369 369 371 369 370 371 368 365 370 367 364 369 368 367 365 365 362 363 365 364 363 364 367 366 365 367 368 364 363 359 351 352 346 344 343 349 345 348 345 342 356 365 369 371 371 372 372 365 365 370 372 371 374 357 347 347 347 347 346 345 344 346 347 348 349 350 350 350 352 352 351 350 348 347 345 343
364 362 365 366 367 367 367 367 368 368 367 367 369 370 371 367 367 368 366 369 368 369 369 366 366 366 364 364 364 363 367 365 365 364 367 369 364 363 361 357 355 351 350 345 347 351 347 350 351 352 363 367 366 367 368 371 362 365 370 371 370 371 351 348 348 346 346 344 342 341 343 345 345 345 346 347 347 348 347 347 345 344 343 341 340
364 365 365 363 365 365 367 366 367 367 368 367 369 369 370 367 366 365 367 370 367 367 369 368 365 366 366 363 367 364 366 365 365 362 365 366 364 364 363 361 357 356 355 353 346 355 352 351 354 358 359 365 365 365 367 370 367 364 370 372 373 361 354 362 350 347 344 342 341 341 341 340 339 341 343 343 343 343 342 342 341 341 340 338 337
361 363 363 362 363 363 363 363 362 364 365 365 366 368 368 367 365 362 363 368 366 366 364 365 362 365 367 364 365 365 365 364 364 364 365 366 365 363 364 364 362 359 358 355 352 351 359 354 356 359 361 363 368 367 368 369 370 361 372 373 375 364 370 372 354 348 343 342 341 340 338 336 335 338 340 340 340 340 340 339 338 338 336 334 332
360 360 361 363 364 363 362 363 362 364 366 365 366 367 368 367 367 367 366 368 366 365 366 366 364 366 367 365 365 366 368 364 363 361 360 363 365 363 365 364 360 362 359 358 353 353 360 363 359 359 362 364 362 369 366 364 366 369 366 371 374 369 369 372 372 346 342 341 340 338 337 335 334 336 337 338 338 337 336 335 334 333 332 331 329
359 358 361 361 363 362 361 363 364 364 366 367 365 365 366 366 366 363 364 367 367 365 366 365 366 365 366 365 364 364 368 365 362 360 359 358 359 358 361 360 359 360 364 358 356 355 354 362 363 366 363 366 360 370 367 364 365 368 367 370 368 367 369 372 372 367 342 343 340 338 337 334 333 333 334 334 334 333 332 331 330 328 329 327 326
357 357 358 358 362 363 361 362 365 364 366 365 364 364 365 365 365 363 362 364 364 363 363 364 363 365 364 364 362 363 364 362 362 360 359 360 360 360 360 361 361 360 364 363 359 356 355 356 364 360 362 365 363 364 367 367 369 369 369 367 364 364 368 370 370 366 343 343 340 338 336 334 332 331 331 331 331 330 329 326 325 324 325 323 323
352 356 357 358 361 363 360 362 363 363 364 363 363 364 364 365 364 365 365 365 364 363 362 362 362 364 362 363 362 362 363 362 362 362 362 362 362 363 362 364 365 362 364 366 364 359 358 355 360 361 362 362 363 367 368 368 366 367 367 368 369 366 365 366 368 367 352 342 340 337 336 334 331 329 328 328 327 325 325 324 323 322 321 322 321
351 353 356 358 360 361 357 359 361 362 362 363 363 361 362 364 364 363 364 365 365 364 364 364 363 364 364 362 361 364 365 362 362 361 360 362 362 361 361 363 363 363 364 364 365 364 360 358 358 364 367 365 366 367 368 363 364 367 371 370 365 367 368 364 365 364 352 339 343 338 335 334 332 330 328 327 326 325 324 324 323 321 320 318 317
351 351 353 354 356 358 358 358 360 361 363 363 363 362 361 362 363 363 363 364 363 364 364 363 364 365 363 364 364 364 364 362 360 361 364 363 363 361 361 362 363 364 365 365 366 365 363 361 361 359 365 362 363 366 368 366 362 361 363 367 370 368 368 364 363 362 362 362 364 356 337 334 329 328 329 328 325 324 324 324 324 322 320 318 315
350 350 350 353 355 356 358 358 358 360 362 361 363 364 363 363 364 363 361 362 362 363 364 362 362 363 363 363 364 365 364 364 362 361 364 364 362 362 363 364 364 363 362 362 364 363 362 360 360 361 360 363 363 359 366 368 366 364 361 360 361 368 369 367 364 365 363 362 352 342 346 343 339 336 324 324 325 325 324 324 325 322 321 318 317
349 349 349 350 354 355 356 357 358 360 362 361 363 364 363 362 362 362 362 361 360 361 362 362 361 360 361 362 360 362 364 366 365 364 365 363 365 363 363 364 364 363 361 360 362 360 359 358 357 355 357 360 362 363 366 366 363 364 366 360 357 359 363 367 368 364 365 364 366 354 339 337 335 332 327 328 329 327 325 327 328 327 323 319 319
349 349 349 349 351 353 354 356 357 358 357 357 359 361 361 362 362 360 361 361 360 360 361 360 361 361 361 361 361 360 364 365 364 363 363 364 363 362 365 365 364 363 362 361 360 359 359 357 356 359 358 358 359 360 358 359 359 357 363 363 360 363 364 362 365 369 365 362 365 362 361 361 354 351 350 349 343 336 331 328 331 327 323 320 320
351 351 351 350 349 351 352 355 356 355 355 356 353 341 346 360 361 358 360 362 361 360 361 360 358 360 360 359 359 363 362 361 358 354 350 352 354 358 362 367 365 363 361 361 360 359 358 356 355 355 354 353 353 358 357 358 362 364 362 364 360 362 364 362 365 367 367 363 362 363 364 362 355 351 350 348 342 343 342 339 330 326 323 321 321
352 353 351 349 348 348 349 351 352 352 353 352 339 333 333 338 356 361 360 361 362 361 359 360 359 358 359 361 362 362 363 360 360 351 349 347 347 348 351 356 362 365 362 360 359 359 357 356 356 356 354 355 356 358 356 356 360 360 360 362 360 360 358 355 352 362 371 366 365 362 364 364 358 352 350 346 342 341 338 333 326 324 322 322 321
353 352 350 349 350 348 347 348 348 350 352 342 331 330 331 330 338 357 357 357 356 358 358 356 358 358 358 358 360 360 362 363 363 365 358 349 344 344 344 346 349 352 354 361 361 360 360 358 356 356 356 356 358 361 357 356 361 364 365 362 362 360 358 357 357 356 367 368 363 360 359 363 359 353 350 347 343 342 334 329 324 321 321 321 320
351 351 351 350 350 350 348 348 347 347 349 336 329 327 328 328 328 341 353 355 353 354 356 358 357 359 360 359 358 360 359 360 361 362 366 368 350 342 343 344 346 345 340 340 346 361 362 362 360 358 359 360 360 361 362 364 367 362 362 360 362 361 360 358 358 358 364 370 364 358 356 359 356 353 351 347 343 340 329 327 321 323 321 320 320
351 350 349 350 351 352 351 350 350 349 349 336 326 325 325 325 327 332 351 351 353 353 355 356 356 357 360 360 359 359 361 363 363 362 363 365 366 366 362 360 361 358 347 339 338 340 349 359 361 360 364 366 362 364 367 369 364 361 361 359 362 360 360 359 363 364 367 367 361 359 354 357 358 354 351 350 344 341 342 327 320 321 320 319 319
350 350 348 348 349 351 350 350 350 349 348 332 324 322 321 322 324 329 349 351 352 354 356 357 358 357 359 360 360 358 360 362 363 362 362 363 365 364 364 363 363 364 365 362 359 358 357 357 360 362 365 366 368 368 369 370 368 366 365 364 363 363 364 366 363 363 361 366 364 360 350 356 357 353 352 350 343 342 341 324 321 321 320 319 319
351 351 351 350 349 349 349 348 347 347 348 329 323 321 319 320 323 339 348 352 352 352 355 357 357 359 359 359 360 359 359 360 357 345 352 362 362 362 361 362 362 362 362 360 348 351 362 363 363 361 361 362 352 366 368 365 368 369 367 366 364 362 359 356 354 358 357 362 363 358 354 355 359 352 352 349 345 343 342 341 323 322 323 320 320
351 350 351 349 351 349 348 348 347 347 347 335 321 318 318 318 323 343 348 350 352 352 353 355 357 358 359 359 360 358 358 360 351 335 336 349 359 359 359 359 359 358 358 362 345 337 337 335 335 337 336 336 334 332 331 333 357 361 363 357 356 359 356 352 353 354 355 359 360 360 355 352 357 355 352 348 346 345 344 343 341 323 321 322 320
351 352 352 351 351 351 349 348 347 347 347 338 319 316 315 316 326 345 349 350 351 352 352 355 356 357 358 355 360 359 358 359 341 332 331 346 357 357 358 357 357 357 359 359 359 357 333 330 331 332 333 333 333 332 332 331 331 347 360 354 359 359 354 355 351 354 357 358 357 361 356 352 356 356 350 348 345 344 342 344 342 335 323 322 316
354 355 354 353 352 352 351 350 344 345 348 340 320 316 314 314 326 346 349 349 349 350 350 351 355 355 356 355 355 352 354 351 335 330 327 342 357 358 358 358 355 356 357 360 359 359 361 357 357 353 350 342 346 351 354 338 334 345 358 360 361 358 354 355 356 354 349 351 359 366 354 354 353 353 350 345 342 345 344 343 339 341 338 336 333
Wind_Speed
4 4 4 4 4 4 4 3 3 3 3 4 4 4 3 3 3 2 3 3 2 3 2 2 2 2 2 3 3 3 3 2 2 1 1 1 1 4 2 3 3 3 3 3 3 2 3 2 3 3 2 2 3 3 2 3 3 2 2 3 4 5 6 7 7 8 9 9 8 8 8 8 8 8 8 8 8 7 7 7 7 6 6 6 5
4 4 4 4 4 4 3 3 3 2 3 4 3 3 3 3 3 2 3 2 2 2 1 2 2 2 2 2 2 3 3 2 1 1 1 1 1 2 2 2 2 3 3 3 3 4 2 2 2 1 2 2 2 3 2 2 2 3 3 3 4 5 6 7 8 8 9 8 7 7 7 7 8 7 7 7 7 7 6 6 7 6 5 6 5
4 4 4 4 4 3 3 2 2 3 3 3 3 3 3 3 3 3 3 2 2 2 1 1 2 1 2 1 2 2 2 2 1 0 0 1 1 1 2 1 2 2 2 2 3 4 4 4 3 3 3 3 3 3 3 3 3 4 4 4 4 6 6 7 8 9 8 7 6 7 7 7 7 7 7 7 7 6 6 6 6 6 5 5 4
3 3 3 3 3 3 2 2 3 2 2 3 3 2 2 2 2 2 2 2 2 1 1 1 1 2 1 2 2 1 2 2 1 2 2 1 1 0 1 1 0 3 3 3 3 3 3 3 3 3 3 4 4 4 4 4 5 5 5 5 6 7 7 7 7 7 7 7 7 7 7 7 7 7 6 6 6 5 6 5 6 5 4 5 4
3 2 2 3 3 2 2 2 2 2 2 3 2 2 2 2 2 2 2 2 2 2 1 1 1 2 1 3 1 1 1 1 2 1 1 1 0 1 1 1 2 2 3 4 4 4 4 4 4 4 4 4 5 5 5 5 5 6 6 6 6 7 8 8 8 8 8 7 7 7 7 7 6 6 6 5 5 6 6 5 6 5 5 5 3
2 2 1 2 2 2 2 2 2 2 2 1 2 2 3 3 3 3 3 3 4 2 1 1 1 1 1 2 1 1 1 1 1 2 1 1 1 1 2 2 2 2 2 2 3 4 5 5 6 6 6 6 6 6 6 7 7 7 7 7 7 8 8 8 8 8 8 8 7 7 7 7 6 6 6 5 5 5 5 6 6 5 5 5 4
1 1 1 0 1 2 2 2 2 1 1 2 2 2 3 3 3 4 3 3 4 3 2 2 2 1 2 2 1 1 1 1 1 2 1 1 1 2 2 2 2 3 3 3 2 4 2 6 7 7 7 7 7 7 7 7 7 8 8 7 7 8 8 8 8 7 7 7 7 7 7 7 7 6 6 6 5 5 5 6 6 6 5 6 6
2 1 1 1 1 1 2 2 2 1 2 2 2 2 3 3 3 3 4 4 4 3 2 1 1 1 1 1 1 1 1 1 2 2 2 2 2 2 2 2 3 3 3 4 3 3 3 5 7 7 8 8 8 8 8 8 8 8 8 9 8 8 8 8 7 8 7 8 8 7 7 7 7 6 6 6 6 5 6 6 6 6 7 6 7
2 1 1 1 1 1 2 2 1 1 1 1 1 2 2 2 2 3 3 3 4 4 2 1 1 1 0 1 1 1 2 2 2 2 2 3 3 2 2 3 3 4 4 3 3 3 4 6 7 8 9 8 8 8 8 9 9 9 9 9 9 9 8 7 8 8 7 8 8 8 7 7 7 7 7 7 7 7 6 6 7 7 7 8 8
2 2 1 0 0 1 2 2 1 1 1 1 1 1 1 2 2 2 3 3 3 4 3 2 1 1 1 1 1 2 2 2 2 2 3 3 3 3 3 3 3 3 3 3 3 3 3 4 7 9 10 10 9 8 9 9 9 9 9 9 9 9 9 8 8 8 8 8 8 8 8 8 8 8 9 8 8 8 7 8 7 8 8 8 9
2 2 2 1 1 0 0 2 1 1 1 1 1 2 1 1 2 2 1 2 2 3 3 2 1 1 1 1 1 1 2 2 2 3 3 4 4 4 4 4 4 3 4 4 3 3 3 3 3 3 3 5 7 8 8 9 9 9 9 9 9 9 9 9 9 9 9 9 8 8 9 9 9 9 9 10 9 7 7 8 9 9 9 9 9
3 2 2 2 1 0 0 1 1 0 0 1 1 1 1 1 1 2 1 1 1 2 1 1 1 1 2 2 1 2 2 3 3 3 3 4 3 3 4 3 3 3 3 3 3 3 3 3 3 3 3 3 6 7 8 9 9 9 9 9 9 9 10 9 10 10 9 10 10 9 8 9 10 10 10 10 10 9 9 9 9 9 10 10 10
3 3 3 2 1 1 1 1 1 1 1 1 2 1 1 1 1 1 1 1 1 1 1 1 0 0 0 2 2 2 2 2 3 3 3 2 2 3 3 4 3 3 3 3 3 4 3 3 3 3 3 3 3 7 8 9 9 9 9 10 10 10 11 11 11 11 10 10 10 9 8 8 9 10 10 10 10 10 10 10 10 11 11 11 11
3 3 3 2 2 2 1 1 1 0 1 1 1 0 1 1 1 0 1 1 0 1 2 1 1 1 1 2 2 2 1 3 3 2 2 2 2 3 3 4 3 2 2 2 3 4 4 3 3 3 3 3 3 3 3 5 7 9 8 9 10 10 11 11 11 11 11 11 11 10 9 9 10 11 11 11 10 11 11 10 11 11 12 12 12
4 4 3 3 3 2 2 1 1 1 1 1 1 1 0 1 1 1 0 1 1 1 1 3 1 1 1 2 3 2 2 1 1 3 2 2 2 3 3 3 3 2 2 3 3 3 3 3 3 3 4 4 4 3 4 4 5 5 7 8 10 11 11 11 11 11 11 12 11 10 10 10 10 11 11 11 12 12 12 11 12 12 12 12 12
4 4 3 3 3 3 2 2 2 2 2 1 2 2 1 1 1 0 1 2 2 2 1 1 1 2 1 2 2 2 2 4 5 3 1 2 3 3 2 3 3 2 2 3 2 2 2 3 4 4 4 4 3 3 4 4 4 7 10 10 10 10 10 11 11 12 12 12 11 10 10 11 11 11 12 12 12 12 12 12 12 12 12 13 13
4 4 4 3 3 3 3 3 2 2 2 1 1 1 1 1 1 1 1 1 1 2 2 1 2 3 2 1 1 1 3 4 5 2 3 2 2 3 2 4 3 1 3 3 2 3 3 3 3 3 4 4 4 4 4 4 4 4 5 8 9 8 9 10 11 11 12 12 12 11 11 11 11 11 12 12 12 13 13 13 13 13 13 13 13
4 4 4 4 4 3 3 3 3 2 2 1 0 1 2 2 2 2 1 1 1 0 2 2 2 2 2 2 2 3 3 5 3 2 4 2 3 3 2 3 2 2 2 3 3 2 2 3 2 3 4 3 3 4 4 4 4 4 4 3 4 6 8 9 10 11 11 12 12 12 12 12 12 12 12 12 13 13 13 13 13 13 13 13 13
5 5 5 5 4 3 3 3 3 2 2 2 2 3 1 2 1 2 2 1 1 1 1 1 1 1 1 1 0 1 2 4 4 4 3 2 3 5 4 4 3 2 1 2 1 2 2 2 3 4 3 3 3 3 3 4 4 6 7 9 8 8 8 9 10 11 12 13 13 13 13 13 13 13 13 13 12 13 14 13 13 13 13 14 14
5 5 5 5 5 4 4 4 3 3 3 3 2 1 1 1 1 2 2 1 1 0 1 1 2 1 1 0 1 1 1 2 2 3 2 4 4 4 3 6 4 5 4 4 3 2 2 2 3 3 3 3 3 3 3 4 4 4 4 4 6 7 9 9 10 11 12 13 14 14 14 14 13 13 13 13 13 13 14 13 13 13 13 14 14
5 6 6 6 5 5 5 4 4 3 3 3 3 2 2 2 3 2 3 2 1 1 0 1 2 1 1 0 0 1 0 1 1 1 2 4 3 5 6 5 4 5 5 4 3 2 2 2 2 4 3 3 3 3 3 3 3 4 6 5 5 6 8 10 10 11 12 13 14 14 14 14 14 14 14 14 14 14 13 13 13 13 13 14 14
6 7 7 7 6 6 5 5 5 4 3 3 2 2 3 3 3 2 2 2 1 1 1 0 1 1 1 0 1 1 1 0 1 0 1 1 3 4 4 6 5 4 3 5 5 4 3 2 2 2 2 3 3 3 3 3 3 4 4 5 7 8 10 11 11 11 12 12 13 13 13 13 13 13 14 14 14 14 13 12 12 12 13 13 13
5 6 7 7 6 6 6 5 4 3 3 3 3 3 2 2 2 2 2 2 2 1 1 1 0 0 1 1 1 1 1 1 2 3 3 2 3 4 4 5 5 5 4 6 4 4 2 2 3 3 3 3 3 3 3 4 5 4 6 9 9 9 10 10 11 11 11 12 11 11 12 12 12 12 13 13 13 13 13 13 13 14 14 13 13
4 5 6 7 6 5 5 5 4 4 4 3 3 2 2 1 2 2 2 2 1 1 1 1 2 1 2 1 1 1 1 1 1 0 2 2 3 4 3 4 3 3 3 4 1 4 4 4 4 4 3 3 3 3 3 3 3 3 6 6 7 9 9 10 10 11 11 11 11 10 10 11 11 11 11 12 12 12 12 12 13 13 13 13 12
5 6 6 7 6 5 5 5 4 4 4 3 3 3 2 2 1 2 2 2 1 1 1 2 2 2 1 1 1 1 1 0 1 2 1 0 2 3 4 3 3 3 3 4 4 3 4 5 5 4 4 4 4 3 3 3 3 3 5 5 7 8 8 9 9 10 10 10 10 10 10 10 10 10 10 10 10 10 10 10 10 11 11 11 11
6 7 6 7 6 6 6 5 5 4 4 4 3 3 3 3 2 2 2 1 1 2 2 2 2 2 2 2 2 1 2 1 1 2 2 2 3 3 4 3 3 3 1 2 2 2 3 4 4 4 5 5 5 4 4 4 3 3 4 6 4 5 7 8 8 9 9 10 10 10 10 9 10 10 10 9 9 9 8 8 8 9 9 10 10
6 5 6 6 6 6 6 6 5 5 4 4 4 4 4 3 3 2 2 1 1 2 2 2 2 2 3 3 3 3 2 1 2 2 2 2 2 3 3 4 3 3 3 1 1 3 4 1 2 4 5 5 5 4 4 4 4 3 6 3 5 4 6 7 8 9 9 9 10 9 10 9 9 9 8 8 8 8 8 8 8 8 9 10 11
5 4 5 6 6 6 6 7 6 5 5 5 4 4 4 4 3 3 3 1 2 3 2 3 3 3 3 2 3 3 2 2 2 2 2 2 2 2 1 1 2 4 4 3 3 3 3 4 2 2 5 5 5 4 4 4 5 7 6 4 4 5 5 9 9 9 9 9 9 9 9 9 8 7 7 7 8 8 8 8 8 9 10 11 12
5 5 5 6 6 6 6 7 6 6 5 5 5 4 4 4 4 3 4 3 2 2 2 3 3 3 2 3 3 3 2 1 3 2 1 1 2 1 1 2 1 2 4 4 3 4 3 5 4 2 4 5 5 5 4 4 5 6 6 6 6 5 8 10 8 8 9 9 9 8 8 8 7 6 7 8 8 8 8 9 10 11 11 12 12
5 5 5 6 6 7 6 6 6 6 6 5 5 5 5 4 4 4 4 2 2 2 3 3 3 3 3 3 3 3 2 3 3 2 1 2 2 2 1 2 2 2 2 4 5 2 3 2 3 3 4 6 5 4 3 4 4 7 6 6 6 6 9 7 7 8 9 9 8 8 7 6 5 6 7 8 8 9 9 10 11 11 11 11 12
6 6 6 6 6 6 6 7 6 7 6 6 5 5 5 5 5 5 4 4 3 3 3 3 3 3 3 4 3 3 3 3 3 2 2 2 2 2 2 2 3 3 2 2 5 0 1 4 3 4 5 5 6 5 4 4 3 5 6 6 6 7 9 3 7 8 8 7 6 6 5 5 6 8 8 9 9 10 10 10 10 10 10 10 11
7 8 7 7 7 8 7 8 8 7 7 7 7 6 6 6 6 5 4 4 5 5 5 4 3 3 4 5 4 4 3 3 3 3 3 2 2 2 2 2 2 3 2 3 4 5 2 4 4 4 3 5 5 4 6 5 2 1 6 5 6 5 4 4 10 8 7 5 4 4 6 7 7 8 8 9 9 10 10 10 9 8 9 9 10
7 8 8 8 8 8 8 7 8 7 7 7 6 6 6 6 6 6 5 5 5 5 5 5 5 4 5 5 5 4 3 4 4 4 4 4 3 3 2 3 3 3 3 3 5 6 4 2 3 4 4 4 4 3 5 6 6 6 6 6 6 6 5 4 3 9 6 3 3 7 8 7 7 7 9 9 9 9 9 8 8 8 8 9 10
9 10 10 9 8 8 8 8 8 8 7 7 7 7 7 7 7 5 6 6 6 6 5 6 6 5 5 5 6 5 4 5 5 5 5 4 5 5 4 3 4 4 3 4 4 5 7 3 3 2 4 2 5 2 4 6 7 6 7 6 5 5 5 3 3 6 8 4 6 9 8 7 7 8 8 8 8 8 8 8 7 8 9 10 9
10 10 10 10 9 9 8 8 8 8 8 8 8 8 7 7 7 7 6 7 7 7 7 7 7 6 6 6 7 6 4 6 6 6 5 5 4 5 5 4 4 4 3 4 4 6 7 6 4 5 3 3 4 5 5 4 4 3 5 6 5 5 3 3 3 2 10 5 8 9 8 8 7 7 7 7 7 7 7 6 6 7 8 9 10
10 10 10 10 9 9 9 9 9 8 8 8 8 8 8 8 8 8 7 7 7 8 8 8 8 7 8 7 7 7 6 6 6 5 5 5 5 4 5 4 4 5 4 4 5 5 6 7 5 5 4 4 4 3 3 4 4 3 3 4 4 4 4 3 1 2 8 8 9 10 9 8 7 7 7 7 7 8 7 6 7 8 9 9 9
12 10 10 10 10 10 10 10 10 10 10 9 9 9 9 8 9 8 8 8 8 8 8 8 8 8 8 8 8 7 6 7 6 6 5 6 5 5 5 5 4 4 4 4 5 5 5 7 7 4 3 4 3 3 3 4 5 4 3 3 3 3 4 4 3 0 9 12 12 11 9 8 7 7 6 6 7 7 6 6 7 8 8 8 9
12 11 11 10 10 11 11 11 11 10 9 9 10 10 10 9 9 9 8 8 8 9 9 9 9 9 9 9 8 8 7 7 7 6 6 6 6 6 6 5 5 4 5 5 5 5 6 6 7 7 4 4 4 3 3 3 5 6 5 3 3 1 3 4 4 3 3 1 1 6 9 9 9 8 6 6 7 7 6 7 7 7 8 8 10
12 12 12 12 11 11 12 11 11 11 10 10 9 10 10 9 9 9 9 9 9 8 9 10 10 10 10 9 9 9 9 8 8 7 6 7 6 7 6 6 5 5 5 5 5 5 6 6 6 6 6 4 3 4 2 2 4 5 5 4 4 1 1 3 4 3 3 1 8 7 7 7 7 6 6 6 6 6 7 7 6 7 7 8 10
13 14 13 13 12 11 11 11 11 10 9 9 9 9 9 10 9 10 10 10 10 9 9 10 10 10 10 10 10 10 9 9 8 8 7 7 6 7 6 6 6 6 6 5 5 5 6 6 6 6 6 5 4 4 4 3 4 4 3 3 5 5 4 3 4 4 2 3 3 5 9 9 8 9 9 7 5 3 1 6 7 6 6 8 8
11 13 13 13 12 12 12 11 11 10 10 10 9 9 10 11 10 11 11 10 10 10 10 10 10 10 10 10 10 11 10 10 10 9 8 6 6 6 6 6 6 6 6 6 5 5 6 6 6 6 6 5 5 4 5 4 4 4 3 3 5 5 4 5 4 3 2 3 3 4 3 2 4 4 4 3 3 5 5 4 6 8 7 6 7
11 11 11 12 12 13 12 12 11 10 10 9 10 14 12 10 11 10 9 10 10 10 9 9 10 10 11 10 10 12 11 11 11 12 12 11 11 10 7 6 6 6 6 6 6 6 6 7 7 6 7 6 5 4 5 5 4 4 4 4 5 4 4 5 5 3 2 3 4 4 2 3 3 3 3 3 3 2 1 1 5 5 4 5 6
12 11 11 12 13 12 13 13 13 11 11 10 15 15 16 16 11 10 10 9 9 10 10 10 10 10 10 10 10 10 11 12 12 14 13 14 14 14 14 12 9 7 7 7 7 7 7 7 7 7 7 7 7 6 6 6 4 5 4 4 5 5 5 5 6 3 3 2 4 5 3 2 3 3 3 2 3 2 1 3 3 2 3 5 5
11 11 12 13 13 13 12 13 14 13 12 13 15 16 17 18 15 12 10 10 10 10 10 11 10 10 10 10 9 8 9 11 11 10 13 15 15 15 15 14 14 14 12 10 8 7 8 8 7 8 8 8 6 5 6 5 4 4 5 5 5 6 6 6 6 6 1 2 5 6 6 5 4 3 3 3 3 2 3 5 2 2 4 5 5
12 12 13 14 14 14 13 13 14 14 13 15 16 17 17 18 18 15 11 11 11 11 11 11 11 10 9 9 9 8 8 12 11 11 10 10 14 17 16 15 14 15 14 15 14 12 9 8 9 9 8 7 7 7 6 6 4 6 5 5 5 6 6 7 7 6 5 2 4 6 7 2 4 4 4 3 3 3 4 6 2 2 3 4 5
12 13 15 15 13 13 13 14 13 14 15 14 17 18 18 18 18 15 13 13 12 12 12 11 11 11 11 10 10 9 9 9 9 11 11 11 9 9 10 10 11 13 15 16 16 17 14 11 10 10 9 8 8 8 7 6 6 7 6 7 6 7 7 8 8 7 5 2 5 6 7 6 5 5 4 3 4 3 2 6 2 2 2 4 5
13 13 14 14 13 13 14 14 13 14 14 16 16 19 19 19 19 15 12 12 12 11 11 12 12 12 12 11 11 12 11 10 9 11 11 10 10 9 9 10 11 11 11 12 12 11 11 12 12 13 12 10 10 10 8 7 8 8 7 8 7 7 7 7 7 5 6 5 6 6 7 5 3 4 4 3 4 4 4 7 5 1 1 3 4
11 12 12 13 13 14 15 15 14 15 15 16 16 18 20 19 18 10 10 12 13 12 12 12 12 11 12 12 11 12 12 12 12 14 13 10 10 10 11 11 10 10 11 12 12 12 12 10 11 12 11 11 9 9 7 5 6 5 5 5 5 6 6 6 7 5 6 4 6 7 7 7 3 4 3 3 3 4 4 4 10 6 2 2 3
12 12 13 14 13 14 15 14 15 15 15 16 18 19 19 19 14 10 11 11 12 13 13 12 12 12 12 12 12 12 12 13 13 14 15 13 11 12 11 11 10 10 11 9 13 17 16 14 13 12 13 12 11 11 11 7 6 6 7 7 8 6 6 7 7 6 6 5 5 7 7 8 4 4 4 3 3 3 4 4 5 9 6 4 2
13 14 13 12 13 13 15 15 15 16 16 15 18 18 19 19 16 12 10 11 12 12 13 13 12 11 13 16 14 13 13 13 14 14 15 13 12 12 12 12 12 12 12 11 8 9 17 17 16 17 16 15 14 13 12 10 9 7 8 9 7 6 8 7 7 6 6 6 6 6 7 8 6 4 4 2 2 4 4 4 4 7 7 7 6
13 12 11 12 13 12 14 16 15 17 16 15 17 19 20 19 17 11 11 10 11 12 12 12 12 12 12 13 18 16 14 15 16 14 15 14 13 13 13 12 12 13 12 10 10 10 7 7 9 10 10 12 11 9 10 14 12 12 11 11 8 7 8 7 7 7 9 8 5 9 8 7 7 5 5 3 4 3 4 4 5 4 4 5 6
Wind_Direction
117 110 109 98 100 104 108 103 95 90 90 77 55 48 43 37 29 23 32 23 32 53 52 63 65 88 69 95 76 71 63 63 65 72 43 40 22 76 17 38 7 3 16 9 7 8 6 11 6 14 17 14 34 28 20 25 11 7 340 335 332 339 341 340 346 354 346 358 3 11 21 20 23 27 27 26 26 29 33 29 22 27 40 39 44
111 106 108 106 107 111 117 112 98 79 63 61 44 32 27 22 24 24 21 27 35 63 37 55 56 68 70 76 73 65 71 64 81 61 35 19 30 73 63 44 359 343 357 360 340 344 334 347 349 347 340 6 2 2 354 348 345 314 318 324 327 333 333 335 341 342 346 356 3 14 18 14 17 23 21 16 23 26 26 25 16 17 32 31 31
107 111 110 112 113 113 108 109 94 70 51 55 40 19 9 13 17 15 20 18 31 48 34 66 67 75 91 77 83 71 57 53 39 105 348 59 19 4 80 355 328 311 322 321 321 320 335 345 350 344 344 338 330 328 331 322 313 310 309 310 317 322 333 334 333 341 349 356 357 11 7 9 9 15 15 11 13 20 14 14 8 2 13 14 16
111 113 108 112 109 107 101 84 71 58 42 29 17 15 9 20 17 5 9 24 41 69 69 53 71 70 101 93 79 53 60 39 356 37 1 23 343 303 319 341 273 324 306 292 295 296 305 317 327 324 324 322 315 316 318 315 309 306 311 316 322 323 324 329 332 340 347 358 356 359 0 359 4 5 7 7 6 12 2 357 356 355 353 357 2
121 108 110 98 94 85 85 65 60 36 32 22 26 25 30 29 40 18 36 30 49 71 121 114 87 75 43 87 62 61 38 2 360 358 360 360 227 276 292 297 309 233 252 291 295 299 308 310 312 311 310 312 311 305 300 299 298 304 311 316 315 314 321 327 334 340 353 346 347 349 351 350 353 360 356 358 356 349 349 337 338 337 332 325 335
127 117 79 98 91 74 61 67 53 33 38 33 53 41 36 24 19 14 24 20 23 30 25 39 79 96 76 65 63 47 356 322 358 16 358 345 2 284 268 274 273 293 295 233 266 309 305 303 302 305 308 303 300 297 296 299 304 307 310 310 312 314 320 327 336 336 333 335 336 337 337 341 344 346 346 342 341 339 330 326 322 323 319 307 306
148 146 123 64 113 102 91 71 49 46 67 63 26 49 49 35 16 7 9 22 17 20 1 15 30 51 36 26 18 47 327 345 348 339 358 4 313 297 294 288 284 284 284 298 233 220 264 297 296 300 299 294 293 296 298 300 306 308 307 313 314 313 314 318 324 327 324 324 326 326 329 328 331 332 333 331 323 317 317 313 312 303 302 296 292
169 169 169 168 112 107 88 60 48 58 56 49 17 40 35 27 20 359 7 11 3 17 13 44 39 34 57 336 23 323 313 340 327 340 358 340 331 314 283 273 269 273 282 285 295 288 236 272 281 290 296 296 295 296 303 307 308 310 309 308 307 306 309 311 313 312 317 313 316 319 319 322 322 319 316 313 307 299 298 297 296 294 289 285 278
190 179 196 160 129 110 98 74 70 74 71 45 41 35 11 32 22 13 359 6 351 7 43 65 91 51 88 301 5 341 324 346 332 336 328 301 293 294 276 261 258 251 253 256 275 292 208 219 259 266 275 287 294 294 295 298 300 300 299 300 302 304 307 305 301 302 303 307 306 309 309 306 304 299 301 303 303 297 294 295 292 287 282 279 274
188 179 170 114 74 33 62 81 96 86 81 55 38 38 35 359 19 15 6 5 353 353 27 51 61 81 29 6 344 311 326 303 313 294 290 287 280 279 278 285 267 260 265 276 282 270 284 227 229 252 258 263 267 272 278 284 286 289 292 294 295 298 299 302 302 300 298 300 300 300 303 303 301 301 299 298 295 291 288 290 288 280 274 272 271
181 181 159 160 153 84 36 92 133 120 78 27 18 22 24 28 5 23 27 14 348 347 4 21 44 359 26 341 332 301 297 288 273 272 275 282 292 280 269 254 255 243 244 247 247 250 258 279 277 274 251 227 257 265 270 273 277 281 286 290 291 290 293 294 294 295 298 299 301 299 296 294 292 293 294 291 288 287 282 283 285 281 277 272 268
187 182 174 164 184 177 94 146 145 157 35 353 22 9 7 16 33 6 16 70 49 344 358 31 59 23 354 309 295 296 274 274 267 265 259 258 257 263 280 269 246 257 245 242 248 264 252 255 259 270 283 244 235 259 263 266 270 273 273 275 279 281 283 285 287 288 289 291 292 293 289 286 285 285 285 287 286 280 278 277 274 272 274 274 272
186 191 185 163 178 166 197 216 197 159 51 12 38 36 1 360 42 19 353 330 13 25 56 324 84 162 327 299 297 287 288 262 275 275 256 257 245 252 258 267 265 248 249 242 248 254 248 238 251 258 265 285 245 217 240 255 260 261 264 268 270 271 273 275 278 281 283 285 286 283 278 273 272 274 275 278 279 276 270 268 268 266 267 265 265
185 193 185 188 180 186 210 221 219 134 62 60 65 108 360 335 334 141 86 347 16 6 61 218 226 284 327 354 339 297 282 273 274 272 273 253 252 248 250 268 278 271 231 226 235 240 242 243 245 257 260 260 270 283 247 232 232 228 253 263 269 272 272 274 279 282 283 283 284 283 279 274 270 269 269 269 271 274 271 267 264 262 263 263 262
190 191 189 197 195 191 216 213 231 189 186 169 149 147 310 334 321 334 115 136 77 74 148 289 344 99 84 298 23 355 119 101 324 315 295 285 270 277 279 285 285 262 241 241 239 243 247 243 242 246 251 252 262 259 258 255 261 251 251 254 263 268 272 273 275 277 278 279 279 276 274 271 269 269 267 266 267 267 268 266 264 263 261 260 259
193 197 200 198 194 205 209 212 201 198 208 190 172 172 196 217 250 223 265 207 172 113 46 322 303 154 56 11 20 330 104 48 351 32 5 310 292 314 285 281 282 251 233 250 246 240 236 232 233 237 240 249 258 256 262 275 264 252 254 255 250 255 267 273 276 279 279 279 278 275 274 272 271 269 268 268 265 264 265 266 265 264 263 260 258
192 201 210 200 200 207 212 208 208 192 193 208 210 210 182 220 250 243 240 304 164 143 122 118 93 10 67 233 132 136 35 23 341 99 8 21 39 334 315 281 292 242 249 264 267 248 257 242 234 239 241 246 246 251 264 264 263 261 255 244 244 251 262 270 275 280 282 282 281 278 275 274 273 270 269 268 267 268 268 268 268 266 265 262 259
191 202 208 212 206 209 209 214 206 189 195 238 224 185 200 229 216 252 199 151 339 224 148 102 67 66 51 65 24 13 348 349 326 27 329 31 357 356 5 333 327 270 255 253 242 245 228 261 233 248 247 248 249 256 264 262 252 259 263 275 254 254 261 265 273 280 281 282 282 279 276 275 274 272 271 270 268 269 270 271 270 270 269 267 264
192 198 207 211 213 207 211 221 219 203 189 206 217 231 187 187 200 232 249 118 189 224 247 159 107 144 138 72 85 337 339 340 4 327 5 18 357 9 35 15 1 347 321 311 304 265 261 272 274 278 267 251 252 260 261 263 258 249 259 267 271 272 276 276 275 278 280 282 283 281 277 275 275 275 276 276 270 271 275 275 274 274 273 271 268
195 193 206 209 213 212 214 219 215 206 197 215 236 230 138 138 199 241 245 221 163 277 334 329 267 117 68 250 145 72 351 317 338 348 325 332 349 13 23 20 15 37 21 12 8 348 317 267 266 261 263 258 255 271 275 278 279 276 272 248 267 275 283 285 283 281 282 285 286 283 282 280 281 282 281 281 280 282 283 282 280 278 277 275 270
207 209 203 210 207 212 210 213 211 204 209 222 225 194 198 177 177 204 221 209 193 89 278 16 280 259 199 124 321 293 317 24 110 235 342 345 1 5 360 3 8 42 25 10 12 345 315 295 290 290 283 277 274 271 278 281 286 286 287 299 295 285 284 286 283 281 280 282 285 288 288 288 287 286 286 284 284 285 286 286 286 285 283 282 280
203 214 214 212 213 211 212 212 215 208 217 227 219 204 197 191 192 207 214 213 162 185 244 358 318 332 241 311 312 337 312 88 89 99 95 343 339 334 359 356 354 11 359 11 2 11 357 344 293 297 318 314 303 291 293 288 290 294 314 328 293 288 287 286 283 280 281 283 286 289 292 293 291 291 292 291 291 292 294 293 292 291 290 289 289
196 199 212 212 212 214 216 212 217 193 209 214 223 230 202 192 182 178 203 216 177 173 206 201 213 266 215 226 297 298 17 350 11 11 350 359 338 336 347 4 343 340 357 349 338 10 23 355 351 12 355 335 335 321 316 312 296 300 300 285 282 281 285 287 288 287 288 291 293 294 296 298 299 298 299 299 299 298 299 298 298 298 297 298 297
203 209 208 205 202 209 218 220 212 208 203 214 222 227 238 199 190 193 195 200 187 201 271 283 264 207 256 206 232 264 157 275 360 347 343 360 337 332 345 343 320 343 341 334 2 12 33 32 31 34 25 16 1 344 321 308 310 283 286 310 291 286 287 291 294 297 297 299 302 304 304 306 305 305 306 305 303 303 304 305 305 305 305 306 307
203 209 205 200 191 198 207 212 209 207 211 206 214 216 233 238 205 216 213 215 208 202 242 264 278 291 291 278 268 265 268 348 286 303 353 265 312 329 349 345 316 328 2 355 4 19 47 44 48 48 45 30 24 5 345 334 351 14 298 296 275 286 291 297 303 306 307 309 313 315 316 314 314 317 317 314 311 308 308 311 316 318 319 321 322
198 201 203 194 197 198 201 209 212 207 205 210 213 215 212 235 218 231 236 213 226 203 238 257 253 251 263 277 264 262 284 302 286 265 263 278 317 343 340 318 295 333 329 346 355 360 80 62 66 54 40 28 23 12 359 351 10 41 311 298 305 291 304 311 318 320 320 323 326 327 326 322 330 332 331 322 315 318 325 330 333 334 332 331 330
204 201 193 190 194 196 203 214 212 209 205 208 206 206 214 223 235 239 262 231 235 235 223 230 243 239 248 257 287 276 287 286 281 272 289 296 322 343 338 335 334 321 351 27 24 42 15 70 41 46 27 17 8 4 359 360 5 345 305 295 347 328 311 331 333 329 330 336 338 339 335 333 334 338 331 325 334 343 346 348 347 342 338 340 342
207 202 195 197 196 200 201 214 213 211 209 211 213 216 206 224 229 230 244 211 237 226 227 216 234 240 256 266 272 283 283 292 294 279 270 291 305 318 294 287 313 336 345 353 2 45 40 7 101 36 11 2 354 357 346 324 11 330 279 341 346 339 15 358 343 340 344 347 352 348 343 345 345 332 329 337 351 356 3 3 1 357 358 1 0
206 202 202 197 202 202 206 214 207 211 212 210 215 218 212 227 232 229 246 238 234 249 232 220 243 241 233 228 254 273 281 275 272 267 278 262 262 275 282 288 275 310 342 340 0 355 31 15 359 59 355 347 339 354 357 355 13 328 348 348 349 346 11 348 342 352 354 1 1 354 351 358 340 334 354 4 8 12 13 17 17 17 20 18 16
203 200 196 198 203 203 209 208 211 213 219 219 215 215 212 228 231 236 248 242 240 240 230 237 232 232 245 237 234 250 231 238 240 267 239 249 254 246 241 230 222 280 342 322 328 334 346 360 345 6 342 333 334 338 355 343 37 327 349 344 349 359 342 325 359 9 12 12 10 359 4 357 350 11 22 23 25 27 31 30 31 34 33 31 28
192 194 197 204 201 203 209 212 209 212 214 220 214 216 213 227 227 237 221 214 230 241 238 228 236 224 232 241 228 245 237 261 274 260 252 250 258 248 240 213 217 238 272 283 302 69 320 324 336 341 329 319 329 332 337 337 7 336 340 344 349 347 306 74 45 35 30 30 13 13 19 26 29 33 34 40 40 42 43 41 43 45 45 43 37
199 197 205 206 203 204 208 213 215 216 215 216 214 213 214 225 231 239 225 207 225 235 249 236 240 220 225 236 234 243 232 248 261 259 246 247 254 258 242 219 213 227 235 273 274 293 252 303 314 311 314 328 308 320 336 333 356 263 343 335 344 308 338 25 94 53 58 40 32 52 55 47 42 43 49 50 47 47 49 51 50 50 50 45 40
196 199 203 205 203 205 211 210 214 210 212 214 211 213 214 219 224 234 238 220 226 235 234 239 235 223 227 236 245 244 232 253 262 268 263 249 242 245 229 223 236 203 227 250 278 289 287 222 274 296 319 312 318 317 326 336 343 350 334 347 343 354 353 358 79 95 79 80 84 74 64 55 52 61 61 56 51 51 53 52 48 45 42 41 36
199 205 205 207 206 205 209 209 209 209 206 208 214 214 217 218 223 222 228 224 226 234 232 236 233 234 228 235 243 243 227 246 259 262 263 261 254 256 239 249 256 251 210 255 269 283 294 274 264 290 293 253 309 321 325 332 340 337 338 337 348 352 349 347 341 102 99 97 88 81 73 67 72 70 71 67 60 58 58 50 47 41 42 39 33
201 206 207 209 203 202 210 209 204 208 205 208 210 213 215 217 221 230 228 225 229 235 232 231 237 236 237 240 247 245 235 243 245 256 259 258 266 270 269 259 260 261 230 224 258 277 291 296 289 290 297 300 303 320 322 316 308 307 319 336 339 348 348 331 333 78 103 104 99 88 81 82 77 77 80 80 75 72 63 54 48 45 43 40 35
202 200 205 206 201 201 210 211 209 209 204 205 208 209 211 215 220 221 225 225 231 235 241 243 240 235 240 244 249 247 242 244 247 251 249 246 246 250 256 246 243 255 254 225 231 261 281 290 293 294 310 311 306 304 304 297 297 307 312 318 308 333 336 327 302 335 115 127 107 95 94 90 87 88 87 87 87 78 70 59 49 47 44 39 35
207 200 197 199 201 202 212 214 212 210 208 205 206 212 211 211 213 218 220 222 225 231 238 242 243 243 243 245 251 240 229 240 243 240 239 234 239 244 248 242 237 242 240 234 236 236 258 275 290 287 282 279 278 280 281 305 306 297 283 269 321 325 324 331 320 102 147 144 118 111 106 102 99 93 92 94 89 82 74 58 49 44 43 41 38
207 206 199 198 202 205 210 214 212 210 207 205 207 211 213 210 208 213 216 220 225 227 232 235 239 240 244 246 245 241 235 234 243 241 236 234 234 237 240 239 236 228 231 234 231 237 250 264 276 287 271 285 291 282 270 280 301 310 306 278 257 281 322 331 345 331 337 239 313 129 130 122 103 92 96 98 93 91 77 59 48 43 38 37 38
208 210 207 203 203 208 210 212 214 211 207 207 208 209 213 211 208 210 216 218 222 226 229 233 237 238 242 244 242 239 240 239 242 241 234 232 234 240 233 234 233 228 235 238 230 239 247 261 268 269 278 268 262 292 244 244 278 277 296 312 315 281 285 322 321 326 311 94 110 63 68 70 97 110 113 107 104 99 83 59 55 48 35 36 37
209 212 212 207 205 209 212 213 215 213 209 208 207 209 210 211 212 214 215 220 223 226 230 231 234 239 239 241 244 241 238 237 240 243 239 239 234 241 235 226 226 229 242 242 238 244 250 255 262 273 274 278 266 266 262 246 270 261 248 305 313 318 319 302 296 304 306 275 270 145 126 128 130 129 140 129 117 100 100 139 85 52 40 36 35
211 214 214 213 211 210 212 211 213 212 215 215 213 209 209 210 215 218 216 218 222 226 230 232 230 231 235 240 241 242 236 232 232 239 248 244 247 247 239 225 226 229 235 239 238 242 247 255 262 260 261 260 259 261 268 263 268 293 301 278 280 282 288 299 298 271 238 268 270 308 299 274 181 181 177 175 143 176 128 255 140 109 42 32 29
212 212 214 215 216 214 212 211 210 211 213 216 209 206 207 212 212 218 218 218 222 225 227 230 232 229 230 235 240 235 230 226 227 229 232 236 235 248 254 234 224 228 233 238 238 236 242 251 255 258 262 261 260 252 267 269 269 266 262 248 270 281 277 281 278 251 211 252 282 296 253 226 220 185 198 181 146 184 126 115 37 14 28 21 24
209 205 205 213 219 221 220 218 215 215 216 218 207 202 207 213 217 217 217 218 216 220 225 228 233 233 232 230 237 229 220 227 233 229 230 227 228 233 240 247 249 241 240 238 239 237 240 249 253 253 257 265 264 270 270 278 263 265 275 276 276 277 278 294 300 290 202 239 282 290 270 201 236 217 207 188 169 154 145 79 58 32 13 17 11
203 206 211 215 218 219 221 221 221 220 221 218 204 203 206 209 212 221 224 226 225 221 224 228 232 233 233 233 232 232 226 228 232 226 221 224 226 228 232 235 235 238 240 244 247 246 240 246 248 249 256 255 259 251 264 269 263 261 257 260 259 264 273 271 278 286 291 219 287 287 292 153 206 224 207 185 164 192 75 77 109 26 15 15 10
209 206 212 213 213 214 218 219 221 222 225 213 203 204 206 207 209 215 230 230 227 226 223 223 229 232 231 233 236 230 235 216 221 234 239 226 215 223 229 232 238 236 234 236 241 247 257 254 253 257 249 257 256 251 247 253 247 261 262 253 246 251 256 264 271 282 286 253 263 283 288 235 176 216 227 174 179 161 141 153 106 37 24 16 13
204 206 211 214 215 213 215 219 221 224 227 216 201 204 206 207 208 206 226 230 230 230 226 224 227 230 228 229 231 233 232 223 218 223 228 233 233 219 219 225 232 231 227 230 234 238 241 250 255 256 253 243 250 251 246 229 232 250 253 265 263 260 252 258 277 280 287 244 261 292 290 270 198 225 231 173 172 156 167 97 121 60 15 20 16
205 207 213 215 215 213 215 217 221 226 230 221 199 202 206 208 208 203 222 228 233 232 227 226 226 229 229 227 229 235 235 228 219 213 222 225 227 229 230 229 229 234 232 226 222 224 225 229 237 243 251 250 252 252 250 234 232 241 251 262 269 270 273 282 275 256 265 238 248 258 273 298 161 229 230 179 172 181 163 138 176 144 31 2 16
217 216 213 217 217 217 217 219 223 228 232 216 201 201 204 207 203 203 217 223 230 233 232 230 228 227 228 228 229 232 235 236 222 202 210 225 232 233 234 235 238 239 240 231 222 222 230 228 227 237 244 248 249 255 262 260 246 243 246 251 252 247 254 258 264 261 261 244 225 242 261 279 226 249 240 172 176 196 174 187 150 188 174 305 347
220 216 217 216 219 221 219 216 219 227 233 216 200 200 201 202 192 208 213 220 225 230 234 233 230 228 227 226 225 233 236 235 227 201 202 208 232 237 238 241 242 246 247 240 204 215 224 231 241 245 251 255 255 253 252 246 247 254 253 256 249 231 233 250 254 252 250 254 223 227 260 272 244 240 241 181 209 222 196 197 161 161 187 215 238
222 224 220 222 222 222 221 220 218 223 232 221 198 201 199 192 191 202 208 213 223 225 232 232 231 230 229 224 223 228 234 237 228 204 196 194 221 232 236 240 243 244 246 245 239 211 212 221 226 234 238 243 244 249 251 236 208 210 223 234 234 229 246 244 253 258 268 262 256 229 249 258 264 228 230 181 200 228 223 192 176 138 160 198 204
231 231 227 227 226 223 223 224 218 222 233 230 199 200 197 191 193 208 208 213 221 227 228 231 229 231 233 225 221 225 231 236 232 212 194 190 217 225 230 236 241 245 246 247 240 245 217 203 221 225 238 237 236 232 231 222 202 205 220 232 238 232 238 236 240 258 271 260 223 164 233 254 252 228 205 215 250 198 192 182 182 192 190 181 171